Location: Alsip
(41.6689°N, 87.7387°W)
Time: 13:48:26
(UTC+00:00)

XW-2B - Pass Details

Date: 29 October 2021
Orbit: 504 x 522 km, 97.5° (Epoch: 04 December)

Event Time Altitude Azimuth Distance (km) Brightness Sun altitude
Rises 10:48:46 0° 34° (NNE) 2,617 ? -17.5°
Reaches altitude 10° 10:51:49 10° 62° (ENE) 1,728 ? -16.9°
Maximum altitude 10:53:41 13° 92° (E) 1,527 ? -16.6°
Drops below altitude 10° 10:55:32 10° 122° (ESE) 1,725 ? -16.2°
Sets 10:58:34 0° 150° (SSE) 2,608 ? -15.7°
